Time,TemperatureF,DewpointF,PressureIn,WindDirection,WindDirectionDegrees,WindSpeedMPH,WindSpeedGustMPH,Humidity,HourlyPrecipIn,Conditions,Clouds,dailyrainin,SolarRadiationWatts/m^2,SoftwareType,DateUTC
2013-01-27 00:11:00,20.2,14.0,30.10,ESE,115,0.0,-999.0,77,-99.99,,,0.00,0,weatherlink.com 1.10,2013-01-27 06:11:00,
2013-01-27 00:26:00,21.0,15.0,30.09,ESE,116,0.0,-999.0,76,-99.99,,,0.00,0,weatherlink.com 1.10,2013-01-27 06:26:00,
2013-01-27 00:41:00,21.2,14.0,30.09,ESE,117,0.0,-999.0,75,-99.99,,,0.00,0,weatherlink.com 1.10,2013-01-27 06:41:00,
2013-01-27 00:56:00,21.1,14.0,30.08,SE,141,0.0,-999.0,75,-99.99,,,0.00,0,weatherlink.com 1.10,2013-01-27 06:56:00,
2013-01-27 01:26:00,20.8,14.0,30.07,SSE,148,0.0,-999.0,76,-99.99,,,0.00,0,weatherlink.com 1.10,2013-01-27 07:26:00,
2013-01-27 01:41:00,20.7,15.0,30.07,SSE,148,0.0,-999.0,77,-99.99,,,0.00,0,weatherlink.com 1.10,2013-01-27 07:41:00,
2013-01-27 01:57:00,20.4,15.0,30.07,SSE,148,0.0,-999.0,78,-99.99,,,0.00,0,weatherlink.com 1.10,2013-01-27 07:57:00,
2013-01-27 02:12:00,20.4,15.0,30.07,SSE,148,0.0,-999.0,78,-99.99,,,0.00,0,weatherlink.com 1.10,2013-01-27 08:12:00,
2013-01-27 02:27:00,20.4,15.0,30.07,SSE,148,0.0,-999.0,79,-99.99,,,0.00,0,weatherlink.com 1.10,2013-01-27 08:27:00,
2013-01-27 02:42:00,20.4,15.0,30.06,SSE,148,0.0,-999.0,79,-99.99,,,0.00,0,weatherlink.com 1.10,2013-01-27 08:42:00,
2013-01-27 02:57:00,20.2,15.0,30.06,SSE,148,0.0,-999.0,79,-99.99,,,0.00,0,weatherlink.com 1.10,2013-01-27 08:57:00,
2013-01-27 03:12:00,20.3,15.0,30.05,SSE,148,0.0,-999.0,80,-99.99,,,0.00,0,weatherlink.com 1.10,2013-01-27 09:12:00,
2013-01-27 03:27:00,20.4,15.0,30.04,SSE,148,0.0,-999.0,80,-99.99,,,0.00,0,weatherlink.com 1.10,2013-01-27 09:27:00,
2013-01-27 03:42:00,20.5,16.0,30.03,SSE,147,0.0,-999.0,81,-99.99,,,0.00,0,weatherlink.com 1.10,2013-01-27 09:42:00,
2013-01-27 03:58:00,20.8,16.0,30.03,SSE,148,0.0,-999.0,81,-99.99,,,0.00,0,weatherlink.com 1.10,2013-01-27 09:58:00,
2013-01-27 04:13:00,21.3,16.0,30.02,SSE,148,0.0,-999.0,80,-99.99,,,0.00,0,weatherlink.com 1.10,2013-01-27 10:13:00,
2013-01-27 04:28:00,21.5,16.0,30.02,SSE,148,0.0,-999.0,80,-99.99,,,0.00,0,weatherlink.com 1.10,2013-01-27 10:28:00,
2013-01-27 04:43:00,21.5,16.0,30.01,SSE,148,0.0,-999.0,80,-99.99,,,0.00,0,weatherlink.com 1.10,2013-01-27 10:43:00,
2013-01-27 04:58:00,21.3,16.0,30.01,SSE,148,0.0,-999.0,81,-99.99,,,0.00,0,weatherlink.com 1.10,2013-01-27 10:58:00,
2013-01-27 05:13:00,21.1,16.0,30.00,SSE,148,0.0,-999.0,81,-99.99,,,0.00,0,weatherlink.com 1.10,2013-01-27 11:13:00,
2013-01-27 05:28:00,20.9,16.0,30.00,SSE,148,0.0,-999.0,81,-99.99,,,0.00,0,weatherlink.com 1.10,2013-01-27 11:28:00,
2013-01-27 05:42:00,20.8,16.0,30.00,SSE,148,0.0,-999.0,81,-99.99,,,0.00,0,weatherlink.com 1.10,2013-01-27 11:42:00,
2013-01-27 05:58:00,20.7,16.0,30.00,ESE,119,0.0,-999.0,81,-99.99,,,0.00,0,weatherlink.com 1.10,2013-01-27 11:58:00,
2013-01-27 06:13:00,21.1,16.0,30.00,ESE,119,0.0,-999.0,80,-99.99,,,0.00,0,weatherlink.com 1.10,2013-01-27 12:13:00,
2013-01-27 06:28:00,20.9,16.0,29.99,ESE,119,0.0,-999.0,81,-99.99,,,0.00,0,weatherlink.com 1.10,2013-01-27 12:28:00,
2013-01-27 06:44:00,20.7,16.0,29.99,ESE,119,0.0,-999.0,81,-99.99,,,0.00,0,weatherlink.com 1.10,2013-01-27 12:44:00,
2013-01-27 06:59:00,21.0,16.0,29.98,ESE,119,0.0,-999.0,82,-99.99,,,0.00,0,weatherlink.com 1.10,2013-01-27 12:59:00,
2013-01-27 07:14:00,21.3,17.0,29.99,ESE,119,0.0,-999.0,82,-99.99,,,0.00,0,weatherlink.com 1.10,2013-01-27 13:14:00,
2013-01-27 07:29:00,21.6,17.0,29.98,ESE,119,0.0,-999.0,83,-99.99,,,0.00,0,weatherlink.com 1.10,2013-01-27 13:29:00,
2013-01-27 07:44:00,22.2,18.0,29.98,ESE,119,0.0,-999.0,83,-99.99,,,0.00,0,weatherlink.com 1.10,2013-01-27 13:44:00,
2013-01-27 07:58:00,23.1,19.0,29.97,ESE,119,0.0,-999.0,83,-99.99,,,0.00,12,weatherlink.com 1.10,2013-01-27 13:58:00,
2013-01-27 08:14:00,23.8,19.0,29.98,ESE,119,0.0,-999.0,83,-99.99,,,0.00,16,weatherlink.com 1.10,2013-01-27 14:14:00,
2013-01-27 08:29:00,24.7,20.0,29.97,ESE,119,0.0,-999.0,83,-99.99,,,0.00,21,weatherlink.com 1.10,2013-01-27 14:29:00,
2013-01-27 08:44:00,25.9,21.0,29.96,ESE,119,0.0,-999.0,82,-99.99,,,0.00,26,weatherlink.com 1.10,2013-01-27 14:44:00,
2013-01-27 08:59:00,26.8,22.0,29.96,ESE,119,0.0,-999.0,82,-99.99,,,0.00,33,weatherlink.com 1.10,2013-01-27 14:59:00,
2013-01-27 09:15:00,27.8,22.0,29.96,ESE,119,0.0,-999.0,80,-99.99,,,0.00,51,weatherlink.com 1.10,2013-01-27 15:15:00,
2013-01-27 09:30:00,29.0,23.0,29.95,ESE,119,0.0,-999.0,78,-99.99,,,0.00,53,weatherlink.com 1.10,2013-01-27 15:30:00,
2013-01-27 09:45:00,29.6,23.0,29.95,ESE,119,0.0,-999.0,76,-99.99,,,0.00,62,weatherlink.com 1.10,2013-01-27 15:45:00,
2013-01-27 10:01:00,30.1,23.0,29.94,ESE,119,0.0,-999.0,75,-99.99,,,0.00,62,weatherlink.com 1.10,2013-01-27 16:01:00,
2013-01-27 10:15:00,30.6,23.0,29.95,East,95,4.0,-999.0,74,-99.99,,,0.00,67,weatherlink.com 1.10,2013-01-27 16:15:00,
2013-01-27 10:30:00,30.9,24.0,29.94,SSE,168,0.0,-999.0,74,-99.99,,,0.00,74,weatherlink.com 1.10,2013-01-27 16:30:00,
2013-01-27 10:45:00,31.1,24.0,29.94,South,173,1.0,-999.0,74,-99.99,,,0.00,91,weatherlink.com 1.10,2013-01-27 16:45:00,
2013-01-27 11:01:00,31.1,24.0,29.94,SE,143,0.0,-999.0,74,-99.99,,,0.00,58,weatherlink.com 1.10,2013-01-27 17:01:00,
2013-01-27 11:16:00,31.0,24.0,29.94,South,188,1.0,-999.0,75,-99.99,,,0.00,47,weatherlink.com 1.10,2013-01-27 17:16:00,
2013-01-27 11:31:00,30.9,24.0,29.93,SSE,150,2.0,-999.0,76,-99.99,,,0.00,60,weatherlink.com 1.10,2013-01-27 17:31:00,
2013-01-27 11:45:00,31.1,25.0,29.92,SSE,153,0.0,-999.0,77,-99.99,,,0.00,60,weatherlink.com 1.10,2013-01-27 17:45:00,
2013-01-27 12:01:00,31.4,25.0,29.91,SE,144,1.0,-999.0,78,-99.99,,,0.00,98,weatherlink.com 1.10,2013-01-27 18:01:00,
2013-01-27 12:16:00,31.9,25.0,29.91,SSE,153,0.0,-999.0,77,-99.99,,,0.00,102,weatherlink.com 1.10,2013-01-27 18:16:00,
2013-01-27 12:31:00,32.1,26.0,29.90,SE,128,0.0,-999.0,79,-99.99,,,0.00,91,weatherlink.com 1.10,2013-01-27 18:31:00,
2013-01-27 12:47:00,32.2,27.0,29.89,SSE,161,0.0,-999.0,82,-99.99,,,0.00,81,weatherlink.com 1.10,2013-01-27 18:47:00,
2013-01-27 13:02:00,32.2,28.0,29.88,SE,146,2.0,-999.0,83,-99.99,,,0.00,84,weatherlink.com 1.10,2013-01-27 19:02:00,
2013-01-27 13:17:00,32.0,29.0,29.88,SE,145,0.0,-999.0,87,-99.99,,,0.00,62,weatherlink.com 1.10,2013-01-27 19:17:00,
2013-01-27 13:31:00,32.0,29.0,29.87,WNW,295,0.0,-999.0,89,-99.99,,,0.01,65,weatherlink.com 1.10,2013-01-27 19:31:00,
2013-01-27 13:46:00,32.2,30.0,29.86,NNE,20,1.0,-999.0,90,-99.99,,,0.03,74,weatherlink.com 1.10,2013-01-27 19:46:00,
2013-01-27 14:17:00,32.2,30.0,29.84,SE,135,0.0,-999.0,92,-99.99,,,0.06,65,weatherlink.com 1.10,2013-01-27 20:17:00,
2013-01-27 14:32:00,32.3,30.0,29.84,SE,134,0.0,-999.0,92,-99.99,,,0.08,81,weatherlink.com 1.10,2013-01-27 20:32:00,
2013-01-27 14:47:00,32.3,30.0,29.84,ESE,106,0.0,-999.0,92,-99.99,,,0.10,86,weatherlink.com 1.10,2013-01-27 20:47:00,
2013-01-27 15:02:00,32.5,31.0,29.84,ESE,106,0.0,-999.0,93,-99.99,,,0.13,77,weatherlink.com 1.10,2013-01-27 21:02:00,
2013-01-27 15:17:00,32.8,31.0,29.83,ESE,106,0.0,-999.0,93,-99.99,,,0.16,86,weatherlink.com 1.10,2013-01-27 21:17:00,
2013-01-27 15:32:00,32.6,31.0,29.82,ESE,105,0.0,-999.0,93,-99.99,,,0.18,69,weatherlink.com 1.10,2013-01-27 21:32:00,
2013-01-27 15:47:00,32.5,31.0,29.82,ESE,105,0.0,-999.0,93,-99.99,,,0.18,60,weatherlink.com 1.10,2013-01-27 21:47:00,
2013-01-27 16:05:00,32.3,31.0,29.82,East,101,0.0,-999.0,93,-99.99,,,0.18,53,weatherlink.com 1.10,2013-01-27 22:05:00,
2013-01-27 16:20:00,32.2,30.0,29.82,WSW,239,0.0,-999.0,93,-99.99,,,0.18,28,weatherlink.com 1.10,2013-01-27 22:20:00,
2013-01-27 16:35:00,32.1,30.0,29.82,SW,228,0.0,-999.0,93,-99.99,,,0.18,16,weatherlink.com 1.10,2013-01-27 22:35:00,
2013-01-27 16:47:00,32.0,30.0,29.82,ESE,122,0.0,-999.0,93,-99.99,,,0.18,16,weatherlink.com 1.10,2013-01-27 22:47:00,
2013-01-27 17:03:00,31.9,30.0,29.81,ESE,122,0.0,-999.0,93,-99.99,,,0.18,7,weatherlink.com 1.10,2013-01-27 23:03:00,
2013-01-27 17:20:00,31.7,30.0,29.81,ESE,122,0.0,-999.0,93,-99.99,,,0.18,0,weatherlink.com 1.10,2013-01-27 23:20:00,
2013-01-27 17:35:00,31.5,30.0,29.81,ESE,122,0.0,-999.0,93,-99.99,,,0.18,0,weatherlink.com 1.10,2013-01-27 23:35:00,
2013-01-27 17:50:00,31.5,30.0,29.81,ESE,122,0.0,-999.0,94,-99.99,,,0.18,0,weatherlink.com 1.10,2013-01-27 23:50:00,
2013-01-27 18:05:00,31.5,30.0,29.81,ESE,122,0.0,-999.0,94,-99.99,,,0.18,0,weatherlink.com 1.10,2013-01-28 00:05:00,
2013-01-27 18:20:00,31.5,30.0,29.81,ESE,122,0.0,-999.0,94,-99.99,,,0.18,0,weatherlink.com 1.10,2013-01-28 00:20:00,
2013-01-27 18:36:00,31.4,30.0,29.81,ESE,122,0.0,-999.0,94,-99.99,,,0.18,0,weatherlink.com 1.10,2013-01-28 00:36:00,
2013-01-27 18:50:00,31.4,30.0,29.82,ESE,122,0.0,-999.0,94,-99.99,,,0.18,0,weatherlink.com 1.10,2013-01-28 00:50:00,
2013-01-27 19:05:00,31.4,30.0,29.82,ESE,122,0.0,-999.0,94,-99.99,,,0.18,0,weatherlink.com 1.10,2013-01-28 01:05:00,
2013-01-27 19:20:00,31.4,30.0,29.81,ESE,122,0.0,-999.0,94,-99.99,,,0.18,0,weatherlink.com 1.10,2013-01-28 01:20:00,
2013-01-27 19:35:00,31.3,30.0,29.81,ESE,122,0.0,-999.0,94,-99.99,,,0.19,0,weatherlink.com 1.10,2013-01-28 01:35:00,
2013-01-27 19:49:00,31.4,30.0,29.81,ESE,122,0.0,-999.0,94,-99.99,,,0.19,0,weatherlink.com 1.10,2013-01-28 01:49:00,
2013-01-27 20:05:00,31.4,30.0,29.80,ESE,122,0.0,-999.0,94,-99.99,,,0.19,0,weatherlink.com 1.10,2013-01-28 02:05:00,
2013-01-27 20:20:00,31.4,30.0,29.80,ESE,122,0.0,-999.0,94,-99.99,,,0.19,0,weatherlink.com 1.10,2013-01-28 02:20:00,
2013-01-27 20:35:00,31.4,30.0,29.80,ESE,122,0.0,-999.0,94,-99.99,,,0.19,0,weatherlink.com 1.10,2013-01-28 02:35:00,
2013-01-27 20:50:00,31.3,30.0,29.80,ESE,122,0.0,-999.0,94,-99.99,,,0.19,0,weatherlink.com 1.10,2013-01-28 02:50:00,
2013-01-27 21:05:00,31.2,30.0,29.80,ESE,122,0.0,-999.0,95,-99.99,,,0.19,0,weatherlink.com 1.10,2013-01-28 03:05:00,
2013-01-27 21:20:00,31.1,30.0,29.79,ESE,122,0.0,-999.0,94,-99.99,,,0.19,0,weatherlink.com 1.10,2013-01-28 03:20:00,
2013-01-27 21:35:00,31.0,30.0,29.79,ESE,123,0.0,-999.0,95,-99.99,,,0.19,0,weatherlink.com 1.10,2013-01-28 03:35:00,
2013-01-27 21:50:00,31.0,30.0,29.79,ESE,122,0.0,-999.0,95,-99.99,,,0.19,0,weatherlink.com 1.10,2013-01-28 03:50:00,
2013-01-27 22:05:00,31.1,30.0,29.79,ESE,122,0.0,-999.0,95,-99.99,,,0.19,0,weatherlink.com 1.10,2013-01-28 04:05:00,
2013-01-27 22:20:00,31.1,30.0,29.79,ESE,122,0.0,-999.0,95,-99.99,,,0.19,0,weatherlink.com 1.10,2013-01-28 04:20:00,
2013-01-27 22:35:00,31.1,30.0,29.78,ESE,122,0.0,-999.0,95,-99.99,,,0.19,0,weatherlink.com 1.10,2013-01-28 04:35:00,
2013-01-27 22:50:00,31.1,30.0,29.79,ESE,122,0.0,-999.0,95,-99.99,,,0.19,0,weatherlink.com 1.10,2013-01-28 04:50:00,
2013-01-27 23:05:00,31.0,30.0,29.79,ESE,122,0.0,-999.0,95,-99.99,,,0.19,0,weatherlink.com 1.10,2013-01-28 05:05:00,
2013-01-27 23:20:00,30.9,30.0,29.79,ESE,122,0.0,-999.0,95,-99.99,,,0.19,0,weatherlink.com 1.10,2013-01-28 05:20:00,
2013-01-27 23:35:00,30.8,30.0,29.79,ESE,122,0.0,-999.0,95,-99.99,,,0.19,0,weatherlink.com 1.10,2013-01-28 05:35:00,
2013-01-27 23:51:00,30.6,29.0,29.78,ESE,122,0.0,-999.0,95,-99.99,,,0.19,0,weatherlink.com 1.10,2013-01-28 05:51:00,